[[{"header":{"parameterUnit":"m.s-1","parameterCategory":1,"la1":30.2991,"la2":30.254,"lo1":-89.0895,"lo2":-89.0444,"dy":0.0017,"dx":0.0017,"nx":28,"ny":28,"refTime":"2024-04-19T21:00:00:Z","depth":0,"parameterNumber":2,"parameterNumberName":"U-component_of_WINDS"},"data":[0,0,0,0,0,0,0,0,0,0,0,0,0,0,0,0,0,0,0,0,0,0,0,0,0,0,0,0,0,0,0,0,0,0,0,0,0,0,0,0,0,0,0,0,0,0,0,0,0,0,0,0,0,0,0,0,0,0,0.0873,0.0874,0,0.0921,0.0921,0.0922,0.0919,0.0918,0.0918,0.0917,0.0968,0.097,0.0972,0,0,0,0,0,0,0,0,0,0,0,0,0,0.0781,0.0783,0.0873,0.0874,0.0874,0.0921,0.0921,0.0922,0.0919,0.0918,0.0917,0.0917,0.0967,0.097,0.0972,0,0,0,0,0,0,0,0,0,0,0,0,0,0.0824,0.0783,0.0873,0.0878,0.0879,0.092,0.0921,0.0922,0.0919,0.0918,0.0917,0.0916,0.0967,0.0969,0.0972,0.1012,0,0,0.0982,0.0983,0,0,0,0,0,0,0,0,0.0822,0.0827,0.0877,0.0878,0.0879,0.0913,0.0907,0.0952,0.092,0.0904,0.0917,0.0916,0.0951,0.0955,0.0966,0.1014,0.1016,0.0982,0.0984,0.0985,0.0986,0,0,0,0,0,0,0,0.0819,0.0825,0.0892,0.0878,0.0879,0.0879,0.0884,0.0916,0.0933,0.0906,0.0905,0.0911,0.0951,0.0963,0.0967,0.1017,0.0982,0.0984,0.0986,0.0987,0.1099,0.11,0,0,0,0,0,0,0.0814,0.0823,0.089,0.0893,0.0847,0.0881,0.0887,0.0903,0.0932,0.0936,0.0912,0.0911,0.0959,0.0964,0.0969,0.1016,0.0985,0.0988,0.0989,0.1098,0.1099,0.11,0,0,0,0,0,0,0.0812,0.082,0.0889,0.0858,0.0867,0.0884,0.0902,0.0905,0.0917,0.0937,0.094,0.0921,0.0958,0.0965,0.1001,0.1018,0.0989,0.0992,0.1096,0.1098,0.11,0.1112,0,0,0,0,0,0,0.081,0.082,0.0835,0.0858,0.0868,0.0919,0.0903,0.0906,0.0922,0.0921,0.0947,0.095,0.0958,0.0996,0.1004,0.1022,0.0994,0.1095,0.1097,0.1099,0.111,0.1114,0.1117,0,0,0,0,0,0.0806,0.0837,0.0835,0.0844,0.0887,0.092,0.0926,0.0934,0.0923,0.0938,0.0951,0.0949,0.1015,0.1,0.1008,0.1028,0.1094,0.1096,0.1099,0.1108,0.1113,0.1117,0,0,0,0,0,0,0.0816,0.084,0.0839,0.0878,0.0897,0.092,0.0939,0.0938,0.0961,0.0959,0.0969,0.0974,0.101,0.1023,0.1005,0.1067,0.1053,0.1057,0.1057,0.1062,0.1065,0.1062,0.0997,0,0,0,0,0,0.0822,0.0846,0.0866,0.0899,0.0908,0.0922,0.0937,0.0941,0.0961,0.0969,0.0985,0.1005,0.103,0.1047,0.1071,0.1112,0.1117,0.1129,0.1132,0.1135,0.1139,0.116,0.1166,0.1109,0.1109,0.1109,0,0,0.0836,0.0852,0.0867,0.0901,0.0916,0.0941,0.0929,0.0956,0.0975,0.0974,0.1008,0.102,0.1043,0.1081,0.1099,0.1093,0.1156,0.1138,0.1141,0.1143,0.1164,0.1169,0.1174,0.1111,0.111,0.111,0,0,0.0874,0.0889,0.0917,0.0932,0.0955,0.0963,0.097,0.0993,0.1,0.1035,0.1034,0.1057,0.11,0.1116,0.113,0.1173,0.1172,0.1181,0.1199,0.122,0.1224,0.1228,0.1243,0.1248,0.1184,0.1184,0.1184,0,0.0888,0.0925,0.0932,0.0959,0.0973,0.0972,0.1001,0.1016,0.1045,0.1056,0.1048,0.1101,0.1117,0.1159,0.1169,0.118,0.1188,0.1178,0.1223,0.1227,0.1231,0.1245,0.1251,0.1185,0.1185,0.1185,0.1185,0,0.0942,0.0967,0.0988,0.1015,0.1032,0.106,0.1071,0.1087,0.1089,0.1099,0.1134,0.1152,0.118,0.119,0.1193,0.1231,0.1227,0.1221,0.1208,0.1237,0.1251,0.1256,0.1186,0.1186,0.1186,0.1186,0,0,0.0988,0.1017,0.1025,0.1037,0.1061,0.1081,0.1109,0.1135,0.1148,0.1169,0.1192,0.1228,0.1222,0.1238,0.1243,0.1261,0.1293,0.1253,0.1254,0.1259,0.1336,0.134,0.1346,0.1292,0.1293,0.1294,0.1334,0,0.1028,0.1076,0.1082,0.1124,0.1148,0.1146,0.117,0.1188,0.1197,0.1219,0.1229,0.1254,0.1245,0.1255,0.1273,0.1285,0.1308,0.1282,0.1314,0.1315,0.1308,0.1353,0.1358,0.1395,0.1339,0.134,0.1341,0,0.1081,0.1102,0.1146,0.1166,0.1177,0.1198,0.1221,0.1242,0.1262,0.1267,0.1284,0.1286,0.1314,0.1299,0.1338,0.1321,0.1334,0.1342,0.1343,0.1347,0.1329,0.1358,0.1407,0.1412,0.1349,0.1348,0.1348,0,0.111,0.1149,0.118,0.1191,0.1215,0.123,0.1241,0.1259,0.1274,0.1295,0.1305,0.1329,0.1342,0.1361,0.137,0.1358,0.1408,0.1394,0.1413,0.1413,0.1424,0.1424,0.1476,0.1433,0.1433,0.1433,0.1433,0,0.1154,0.1181,0.1193,0.1212,0.1243,0.1249,0.1279,0.129,0.1306,0.1327,0.1328,0.1348,0.1358,0.138,0.1387,0.1418,0.1424,0.1429,0.1431,0.1429,0.1429,0.1438,0.1436,0.1434,0.1434,0.1434,0.1433,0,0.1191,0.12,0.1234,0.1254,0.1259,0.1281,0.1298,0.1317,0.1325,0.1352,0.1359,0.1373,0.1398,0.1408,0.144,0.1445,0.148,0.148,0.1473,0.1474,0.1493,0.1491,0.1553,0.1562,0.1513,0.1513,0.1514,0,0.1218,0.1239,0.1261,0.1274,0.1286,0.1308,0.1323,0.133,0.1345,0.1369,0.1385,0.141,0.143,0.1471,0.1484,0.1508,0.1508,0.1529,0.1512,0.151,0.1508,0.1507,0.1509,0.1532,0.1532,0.1533,0.1533,0,0.1266,0.1269,0.129,0.1312,0.133,0.1348,0.1365,0.1377,0.1387,0.1404,0.1429,0.1445,0.1476,0.1502,0.1526,0.1538,0.1537,0.1538,0.1544,0.1542,0.1537,0.154,0.1481,0.1537,0.1536,0.1536,0.1536,0.1536,0.1299,0.1317,0.1334,0.1358,0.1371,0.1387,0.1406,0.1416,0.1437,0.1463,0.1465,0.1493,0.1511,0.1544,0.1556,0.1578,0.1573,0.1581,0.1583,0.1585,0.1586,0.1534,0.1582,0.1582,0.1582,0.1582,0.1582,0,0.1346,0.1357,0.1378,0.1402,0.142,0.1417,0.1436,0.1451,0.1475,0.1492,0.1512,0.1541,0.1564,0.1579,0.1603,0.1617,0.1618,0.1624,0.1623,0.1625,0.159,0.1582,0.1623,0.1623,0.1623,0.1623,0.1623,0.1623,0.1373,0.1403,0.1408,0.1444,0.1455,0.1481,0.1492,0.1507,0.1521,0.1553,0.1572,0.1581,0.1597,0.1622,0.1643,0.1647,0.1656,0.1662,0.1665,0.1632,0.1628,0.1624,0.1617,0.1664,0.1664,0.1699,0.1699,0.1699]},{"header":{"parameterUnit":"m.s-1","parameterCategory":1,"la1":30.2991,"la2":30.254,"lo1":-89.0895,"lo2":-89.0444,"dy":0.0017,"dx":0.0017,"nx":28,"ny":28,"refTime":"2024-04-19T21:00:00:Z","depth":0,"parameterNumber":3,"parameterNumberName":"V-component_of_WINDS"},"data":[0,0,0,0,0,0,0,0,0,0,0,0,0,0,0,0,0,0,0,0,0,0,0,0,0,0,0,0,0,0,0,0,0,0,0,0,0,0,0,0,0,0,0,0,0,0,0,0,0,0,0,0,0,0,0,0,0,0,2.8706,2.8706,0,2.8705,2.8704,2.8704,2.8704,2.8705,2.8705,2.8705,2.87,2.87,2.87,0,0,0,0,0,0,0,0,0,0,0,0,0,2.8706,2.8706,2.8706,2.8706,2.8706,2.8705,2.8704,2.8704,2.8704,2.8705,2.8705,2.8705,2.87,2.87,2.87,0,0,0,0,0,0,0,0,0,0,0,0,0,2.8705,2.8706,2.8706,2.8706,2.8706,2.8705,2.8704,2.8704,2.8704,2.8705,2.8705,2.8705,2.87,2.87,2.87,2.8697,0,0,2.8699,2.8699,0,0,0,0,0,0,0,0,2.8705,2.8705,2.8706,2.8706,2.8706,2.8705,2.8703,2.8702,2.8704,2.8705,2.8705,2.8705,2.8701,2.8701,2.87,2.8697,2.8697,2.8699,2.8699,2.8699,2.8699,0,0,0,0,0,0,0,2.8705,2.8705,2.8705,2.8706,2.8706,2.8705,2.8705,2.8703,2.8703,2.8705,2.8705,2.8705,2.8701,2.8701,2.87,2.8697,2.8699,2.8699,2.8699,2.8698,2.8693,2.8693,0,0,0,0,0,0,2.8706,2.8705,2.8705,2.8705,2.8706,2.8705,2.8705,2.8705,2.8703,2.8703,2.8705,2.8705,2.8701,2.8701,2.87,2.8698,2.8699,2.8698,2.8698,2.8693,2.8693,2.8693,0,0,0,0,0,0,2.8706,2.8706,2.8705,2.8705,2.8705,2.8705,2.8705,2.8705,2.8704,2.8703,2.8703,2.8704,2.8701,2.8701,2.8699,2.8698,2.8698,2.8698,2.8693,2.8693,2.8693,2.8694,0,0,0,0,0,0,2.8706,2.8706,2.8705,2.8705,2.8705,2.8704,2.8705,2.8705,2.8704,2.8704,2.8702,2.8702,2.8701,2.8699,2.8698,2.8698,2.8698,2.8693,2.8693,2.8693,2.8694,2.8694,2.8694,0,0,0,0,0,2.8706,2.8705,2.8705,2.8705,2.8705,2.8704,2.8704,2.8704,2.8704,2.8704,2.8703,2.8702,2.8698,2.8699,2.8698,2.8697,2.8693,2.8693,2.8693,2.8694,2.8694,2.8694,0,0,0,0,0,0,2.8703,2.8705,2.8705,2.8704,2.8704,2.8704,2.8703,2.8704,2.8703,2.8703,2.8702,2.8701,2.8699,2.8698,2.8698,2.8696,2.8695,2.8695,2.8696,2.8696,2.8696,2.8697,2.8698,0,0,0,0,0,2.8703,2.8703,2.8704,2.8703,2.8703,2.8703,2.8703,2.8703,2.8703,2.8702,2.8701,2.87,2.8698,2.8697,2.8696,2.8694,2.8693,2.8693,2.8693,2.8693,2.8693,2.8692,2.8692,2.8692,2.8692,2.8692,0,0,2.8701,2.8702,2.8702,2.8703,2.8703,2.8702,2.8703,2.8702,2.8702,2.8702,2.87,2.87,2.8698,2.8696,2.8695,2.8695,2.8693,2.8693,2.8693,2.8693,2.8692,2.8692,2.8692,2.8692,2.8692,2.8692,0,0,2.8699,2.8699,2.8699,2.87,2.87,2.8701,2.8701,2.8701,2.8701,2.87,2.87,2.8699,2.8696,2.8696,2.8695,2.8694,2.8693,2.8693,2.8693,2.8693,2.8692,2.8692,2.8692,2.8692,2.8693,2.8693,2.8693,0,2.8696,2.8697,2.8699,2.8699,2.8699,2.87,2.87,2.87,2.8699,2.8699,2.8699,2.8697,2.8696,2.8695,2.8695,2.8694,2.8694,2.8693,2.8693,2.8693,2.8692,2.8692,2.8692,2.8693,2.8693,2.8693,2.8693,0,2.8695,2.8695,2.8695,2.8696,2.8696,2.8696,2.8697,2.8697,2.8697,2.8698,2.8697,2.8696,2.8695,2.8694,2.8694,2.8693,2.8693,2.8693,2.8693,2.8693,2.8692,2.8692,2.8693,2.8693,2.8693,2.8693,0,0,2.8689,2.8693,2.8692,2.8694,2.8695,2.8695,2.8695,2.8695,2.8695,2.8695,2.8695,2.8694,2.8694,2.8693,2.8693,2.8693,2.8693,2.8693,2.8693,2.8693,2.8692,2.8692,2.8692,2.8693,2.8693,2.8693,2.8692,0,2.8687,2.8688,2.869,2.869,2.8691,2.8693,2.8693,2.8693,2.8694,2.8694,2.8694,2.8693,2.8694,2.8693,2.8693,2.8693,2.8692,2.8693,2.8692,2.8692,2.8692,2.8692,2.8692,2.8692,2.8692,2.8692,2.8692,0,2.8684,2.8686,2.8686,2.8689,2.8689,2.8689,2.869,2.8691,2.8692,2.8692,2.8692,2.8692,2.8692,2.8692,2.8692,2.8692,2.8692,2.8692,2.8692,2.8692,2.8692,2.8692,2.8692,2.8692,2.8692,2.8692,2.8692,0,2.868,2.8683,2.8684,2.8684,2.8687,2.8688,2.8689,2.869,2.869,2.8691,2.8691,2.8691,2.8691,2.8691,2.8691,2.8692,2.8691,2.8691,2.8691,2.8691,2.8691,2.8691,2.869,2.8691,2.8691,2.8691,2.8691,0,2.8678,2.8678,2.8682,2.8683,2.8684,2.8686,2.8686,2.8687,2.8688,2.8689,2.869,2.869,2.8691,2.8691,2.8691,2.8691,2.8691,2.8691,2.8691,2.8691,2.8691,2.8691,2.8691,2.8691,2.8691,2.8691,2.8691,0,2.8673,2.8676,2.8678,2.8681,2.8682,2.8682,2.8685,2.8686,2.8687,2.8688,2.8688,2.8689,2.869,2.8691,2.869,2.8691,2.8691,2.8691,2.8691,2.8691,2.8691,2.8691,2.869,2.8691,2.869,2.869,2.869,0,2.8671,2.8672,2.8676,2.8677,2.8679,2.868,2.8682,2.8684,2.8685,2.8687,2.8687,2.8688,2.8689,2.869,2.869,2.8691,2.8691,2.869,2.869,2.8691,2.8691,2.8691,2.8691,2.869,2.869,2.869,2.869,0,2.8668,2.867,2.8672,2.8675,2.8676,2.8678,2.868,2.8681,2.8684,2.8685,2.8686,2.8687,2.8688,2.8689,2.869,2.869,2.8691,2.869,2.869,2.869,2.8691,2.8691,2.8691,2.869,2.869,2.869,2.869,2.869,2.8665,2.8666,2.8669,2.8672,2.8674,2.8676,2.8678,2.868,2.8681,2.8683,2.8685,2.8686,2.8688,2.8689,2.869,2.869,2.869,2.869,2.869,2.869,2.8691,2.8691,2.869,2.869,2.869,2.869,2.869,0,2.8661,2.8664,2.8667,2.867,2.8673,2.8674,2.8677,2.8678,2.868,2.8682,2.8684,2.8686,2.8687,2.8688,2.869,2.869,2.869,2.869,2.869,2.869,2.869,2.869,2.869,2.869,2.869,2.869,2.869,2.869,2.866,2.8662,2.8665,2.8668,2.8671,2.8673,2.8675,2.8677,2.8679,2.8681,2.8683,2.8685,2.8686,2.8688,2.8689,2.869,2.869,2.869,2.8691,2.869,2.869,2.869,2.869,2.869,2.869,2.8691,2.8691,2.8691]}]]